Change the Weather History Date:

Tuesday, November 19, 2013

  Actual Average Record
Temperature  
Mean Temperature 50 °F -  
Max Temperature 60 °F 55 °F 78 °F (2011)
Min Temperature 39 °F 34 °F 27 °F (2000)
Degree Days  
Heating Degree Days 16    
Moisture  
Dew Point 27 °F    
Average Humidity 40    
Maximum Humidity 76    
Minimum Humidity 24    
Precipitation  
Precipitation 0.00 in - - ()
Sea Level Pressure  
Sea Level Pressure 30.13 in    
Wind  
Wind Speed 8 mph (SE)    
Max Wind Speed 17 mph    
Max Gust Speed 22 mph    
Visibility 10 miles    
Events      
Averages and records for this station are not official NWS values.
T = Trace of Precipitation, MM = Missing Value Source: NWS Daily Summary

Daily Weather History Graph

Daily Weather History Graph

Search for Another Location

Airport or City:

Trip Planner

Search our weather history database for the weather conditions in past years. The results will help you decide how hot, cold, wet, or windy it might be!

Date:

Astronomy

Nov. 19, 2013 Rise Set
Actual Time 7:05 AM CST 5:09 PM CST
Civil Twilight 6:37 AM CST 5:37 PM CST
Nautical Twilight 6:05 AM CST 6:09 PM CST
Astronomical Twilight 5:34 AM CST 6:40 PM CST
Moon 7:02 PM CST (11/19) 8:45 AM CST (11/19)
Length of Visible Light 11h 00m
Length of Day
10h 04m
Waning Gibbous, 96% of the Moon is Illuminated
Nov 19
Waning Gibbous
Nov 25
Last Quarter
Dec 2
New
Dec 9
First Quarter
Dec 17
Full

Hourly Weather History & Observations

Time (CST) Temp. Windchill Dew Point Humidity Pressure Visibility Wind Dir Wind Speed Gust Speed Precip Events Conditions
12:52 AM 48.0 °F - 28.9 °F 48% 30.24 in 10.0 mi Calm Calm - N/A   Clear
1:52 AM 44.1 °F 42.5 °F 32.0 °F 63% 30.24 in 10.0 mi ESE 3.5 mph - N/A   Clear
2:52 AM 44.1 °F 42.5 °F 30.9 °F 60% 30.24 in 10.0 mi East 3.5 mph - N/A   Clear
3:52 AM 42.1 °F 39.2 °F 30.9 °F 65% 30.24 in 10.0 mi ESE 4.6 mph - N/A   Clear
4:52 AM 39.0 °F 34.8 °F 32.0 °F 76% 30.23 in 10.0 mi East 5.8 mph - N/A   Clear
5:52 AM 42.1 °F 37.7 °F 30.0 °F 62% 30.21 in 10.0 mi ESE 6.9 mph - N/A   Clear
6:52 AM 44.1 °F 40.1 °F 30.9 °F 60% 30.22 in 10.0 mi ESE 6.9 mph - N/A   Scattered Clouds
7:52 AM 48.0 °F - 30.9 °F 52% 30.22 in 10.0 mi SE 6.9 mph - N/A   Scattered Clouds
8:52 AM 50.0 °F - 28.9 °F 44% 30.22 in 10.0 mi South 6.9 mph - N/A   Partly Cloudy
9:52 AM 55.9 °F - 27.0 °F 33% 30.21 in 10.0 mi SSE 10.4 mph - N/A   Scattered Clouds
10:52 AM 60.1 °F - 26.1 °F 27% 30.20 in 10.0 mi SSE 12.7 mph - N/A   Partly Cloudy
11:52 AM 59.0 °F - 24.1 °F 26% 30.18 in 10.0 mi South 13.8 mph - N/A   Overcast
12:52 PM 60.1 °F - 23.0 °F 24% 30.13 in 10.0 mi SSE 17.3 mph - N/A   Overcast
1:52 PM 60.1 °F - 23.0 °F 24% 30.11 in 10.0 mi SSE 15.0 mph - N/A   Overcast
2:52 PM 60.1 °F - 23.0 °F 24% 30.07 in 10.0 mi SSE 16.1 mph 21.9 mph 0.00 in   Overcast
3:52 PM 57.9 °F - 23.0 °F 26% 30.06 in 10.0 mi SSE 13.8 mph - 0.00 in   Overcast
4:52 PM 57.0 °F - 23.0 °F 27% 30.04 in 10.0 mi SSE 10.4 mph - N/A   Overcast
5:52 PM 55.9 °F - 21.9 °F 27% 30.03 in 10.0 mi SSE 13.8 mph - N/A   Overcast
6:52 PM 55.0 °F - 24.1 °F 30% 30.03 in 10.0 mi SSE 13.8 mph - N/A   Overcast
7:52 PM 55.0 °F - 24.1 °F 30% 30.03 in 10.0 mi SSE 15.0 mph - N/A   Overcast
8:52 PM 54.0 °F - 25.0 °F 33% 30.01 in 10.0 mi SSE 15.0 mph - N/A   Mostly Cloudy
9:52 PM 54.0 °F - 27.0 °F 35% 30.01 in 10.0 mi SSE 13.8 mph - 0.00 in   Overcast
10:52 PM 54.0 °F - 28.0 °F 37% 30.00 in 10.0 mi SSE 13.8 mph - 0.00 in   Overcast
11:52 PM 53.1 °F - 27.0 °F 37% 30.01 in 10.0 mi SSE 12.7 mph - 0.00 in   Overcast